Brier Island, Nova Scotia

10:13 AM ADT on June 27, 2017 (GMT -0300)
Brier Island

Weather History for CWVU - February, 2012

Change the Weather History Date:

Friday, February 17, 2012

  Actual Average Record
Temperature  
Mean Temperature 37 °F -  
Max Temperature 41 °F - - ()
Min Temperature 33 °F - - ()
Degree Days  
Heating Degree Days 28    
Moisture  
Dew Point 36 °F    
Average Humidity 96    
Maximum Humidity 99    
Minimum Humidity 91    
Precipitation  
Precipitation 0.08 in - - ()
Sea Level Pressure  
Sea Level Pressure 29.97 in    
Wind  
Wind Speed 9 mph ()    
Max Wind Speed 17 mph    
Max Gust Speed 24 mph    
T = Trace of Precipitation, MM = Missing Value Source: Averaged Metar Reports

Daily Weather History Graph

Daily Weather History Graph

Search for Another Location

Airport or City:

Trip Planner

Search our weather history database for the weather conditions in past years. The results will help you decide how hot, cold, wet, or windy it might be!

Date:

Astronomy

Feb. 17, 2012 Rise Set
Actual Time 7:22 AM AST 5:56 PM AST
Civil Twilight 6:53 AM AST 6:26 PM AST
Nautical Twilight 6:19 AM AST 7:00 PM AST
Astronomical Twilight 5:45 AM AST 7:33 PM AST
Moon 4:18 AM AST (2/17) 1:38 PM AST (2/17)
Length of Visible Light 11h 33m
Length of Day
10h 33m
Waning Crescent, 19% of the Moon is Illuminated
Feb 17
Waning Crescent
Feb 21
New
Feb 29
First Quarter
Mar 8
Full
Mar 14
Last Quarter

Hourly Weather History & Observations

Time (AST) Temp. Windchill Dew Point Humidity Pressure Visibility Wind Dir Wind Speed Gust Speed Precip Events Conditions
12:00 AM 35.2 °F 28.8 °F 33.1 °F 92% 30.13 in - ENE 8.1 mph - N/A   Unknown
1:00 AM 33.3 °F 27.9 °F 32.0 °F 95% 30.11 in - East 5.8 mph - N/A   Unknown
2:00 AM 33 °F - 32 °F 95% 30.09 in - East 9.2 mph - -  
2:00 AM 33.4 °F 25.9 °F 31.8 °F 94% 30.09 in - East 9.2 mph - N/A   Unknown
3:00 AM 33.4 °F 26.6 °F 31.8 °F 94% 30.09 in - ESE 8.1 mph - N/A   Unknown
4:00 AM 33.3 °F 24.6 °F 31.6 °F 94% 30.06 in - ESE 11.5 mph - N/A   Unknown
5:00 AM 33.6 °F 25.0 °F 31.8 °F 93% 30.06 in - ESE 11.5 mph - N/A   Unknown
6:00 AM 34.0 °F 26.0 °F 31.6 °F 91% 30.05 in - SE 10.4 mph - N/A   Unknown
7:00 AM 34.2 °F 25.7 °F 32.9 °F 95% 30.04 in - SE 11.5 mph - N/A   Unknown
8:00 AM 35 °F - 34 °F 92% 30.05 in - SE 10.4 mph - -  
8:00 AM 34.7 °F 26.9 °F 33.6 °F 96% 30.05 in - SE 10.4 mph - N/A   Unknown
9:00 AM 34.9 °F 25.7 °F 34.0 °F 97% 30.03 in - SE 13.8 mph - N/A   Unknown
10:00 AM 35.6 °F 26.6 °F 34.9 °F 97% 30.01 in - SE 13.8 mph - N/A   Unknown
11:00 AM 36.9 °F 27.8 °F 36.1 °F 97% 29.99 in - SE 15.0 mph - N/A   Unknown
12:00 PM 37.8 °F 29.0 °F 37.0 °F 97% 29.97 in - SSE 15.0 mph - N/A   Unknown
1:00 PM 39.0 °F 29.9 °F 38.3 °F 97% 29.93 in - SSE 17.3 mph 24.2 mph 0.03 in   Unknown
2:00 PM 39 °F - 39 °F 99% 29.91 in - South 11.5 mph - -  
2:00 PM 39.4 °F 32.3 °F 38.8 °F 98% 29.91 in - South 11.5 mph - 0.03 in   Unknown
3:00 PM 39.4 °F 32.3 °F 38.8 °F 98% 29.88 in - South 11.5 mph - 0.02 in   Unknown
4:00 PM 40.3 °F 33.4 °F 39.7 °F 98% 29.86 in - South 11.5 mph 19.6 mph 0.03 in   Unknown
5:00 PM 40.8 °F 34.5 °F 40.3 °F 98% 29.85 in - South 10.4 mph 19.6 mph N/A   Unknown
6:00 PM 40.8 °F 34.5 °F 40.3 °F 98% 29.85 in - South 10.4 mph 21.9 mph 0.03 in   Unknown
7:00 PM 40.8 °F 35.6 °F 40.1 °F 97% 29.84 in - SSW 8.1 mph - N/A   Unknown
8:00 PM 40 °F - 39 °F 97% 29.84 in - WSW 6.9 mph - -  
8:00 PM 40.3 °F 35.5 °F 39.4 °F 97% 29.84 in - WSW 6.9 mph - N/A   Unknown
9:00 PM 40.3 °F 34.9 °F 39.4 °F 97% 29.83 in - West 8.1 mph - N/A   Unknown
10:00 PM 39.7 °F 34.3 °F 38.8 °F 97% 29.82 in - WNW 8.1 mph - N/A   Unknown